Tracking 21470 objects as of 25-Sep-2020
HD Live streaming from Space Station
objects crossing your sky now

SL-8 DEB

Track SL-8 DEB now!
10-day predictions


NORAD ID: 21181
Int'l Code: 1991-009AU
Perigee: 1,425.0 km
Apogee: 1,753.5 km
Inclination: 73.9 °
Period: 117.8 minutes
Semi major axis: 7960 km
RCS: 0.0238 m2 (small)
Launch date: February 12, 1991
Source: Commonwealth of Independent States (former USSR) (CIS)
Launch site: PLESETSK MISSILE AND SPACE COMPLEX (PKMTR)

Note: This is SATELLITE DEBRIS
aabbcc
Your satellite tracking list
Your tracking list is empty




NASA's NSSDC Master Catalog

Two Line Element Set (TLE):
1 21181U 91009AU  20268.43280883 +.00000072 +00000-0 +75954-3 0  9998
2 21181 073.9487 159.3543 0206371 047.4199 124.4456 12.22398545318487
Source of the keplerian elements: AFSPC